Daytona Beach, FL

2:29 AM EDT on April 28, 2017 (GMT -0400)
Daytona Beach International

Weather History for KDAB - December, 2013

Change the Weather History Date:

Monday, December 30, 2013

  Actual Average Record
Temperature  
Mean Temperature 61 °F 58 °F  
Max Temperature 67 °F 68 °F 85 °F (1990)
Min Temperature 54 °F 48 °F 27 °F (1961)
Degree Days  
Heating Degree Days 4 8  
Month to date heating degree days 69 184  
Since 1 July heating degree days 100 258  
Cooling Degree Days 0 1  
Month to date cooling degree days 114 46  
Year to date cooling degree days 3256 2958  
Growing Degree Days 10 (Base 50)    
Moisture  
Dew Point 53 °F    
Average Humidity 74    
Maximum Humidity 100    
Minimum Humidity 48    
Precipitation  
Precipitation T in 0.08 in 0.94 in (1950)
Month to date precipitation 1.69 2.54  
Year to date precipitation 48.05 49.53  
Sea Level Pressure  
Sea Level Pressure 30.12 in    
Wind  
Wind Speed 5 mph (NNW)    
Max Wind Speed 13 mph    
Max Gust Speed 15 mph    
Visibility 9 miles    
Events Rain    
T = Trace of Precipitation, MM = Missing Value Source: NWS Daily Summary

Daily Weather History Graph

Daily Weather History Graph

Search for Another Location

Airport or City:

Trip Planner

Search our weather history database for the weather conditions in past years. The results will help you decide how hot, cold, wet, or windy it might be!

Date:

Astronomy

Dec. 30, 2013 Rise Set
Actual Time 7:17 AM EST 5:36 PM EST
Civil Twilight 6:51 AM EST 6:02 PM EST
Nautical Twilight 6:22 AM EST 6:31 PM EST
Astronomical Twilight 5:53 AM EST 7:00 PM EST
Moon 5:09 AM EST (12/30) 4:04 PM EST (12/30)
Length of Visible Light 11h 10m
Length of Day
10h 18m
Waning Crescent, 5% of the Moon is Illuminated
Dec 30
Waning Crescent
Jan 1
New
Jan 7
First Quarter
Jan 15
Full
Jan 24
Last Quarter

Hourly Weather History & Observations

Time (EST) Temp. Dew Point Humidity Pressure Visibility Wind Dir Wind Speed Gust Speed Precip Events Conditions
12:31 AM 64.4 °F 62.6 °F 94% 30.00 in 10.0 mi NW 4.6 mph - N/A   Scattered Clouds
12:53 AM 64.9 °F 63.0 °F 93% 30.00 in 10.0 mi WNW 3.5 mph - N/A   Partly Cloudy
1:53 AM 63.0 °F 62.1 °F 97% 30.01 in 10.0 mi NW 5.8 mph - N/A   Partly Cloudy
2:53 AM 62.1 °F 60.1 °F 93% 30.02 in 10.0 mi NW 3.5 mph - N/A   Partly Cloudy
3:43 AM 60.8 °F 57.2 °F 88% 30.04 in 10.0 mi NW 5.8 mph - N/A   Mostly Cloudy
3:53 AM 60.1 °F 57.9 °F 93% 30.04 in 10.0 mi NNW 4.6 mph - N/A   Mostly Cloudy
4:04 AM 60.8 °F 57.2 °F 88% 30.04 in 10.0 mi NNW 3.5 mph - N/A   Mostly Cloudy
4:53 AM 60.1 °F 57.0 °F 90% 30.04 in 10.0 mi North 8.1 mph - N/A   Mostly Cloudy
5:53 AM 59.0 °F 55.9 °F 90% 30.06 in 10.0 mi North 9.2 mph - N/A   Overcast
6:53 AM 57.9 °F 55.9 °F 93% 30.09 in 8.0 mi North 4.6 mph - N/A   Overcast
7:27 AM 57.2 °F 55.4 °F 94% 30.11 in 4.0 mi NNW 10.4 mph - N/A   Overcast
7:53 AM 55.9 °F 54.0 °F 93% 30.11 in 3.0 mi NW 8.1 mph - 0.00 in Rain Light Rain
8:51 AM 53.6 °F 51.8 °F 94% 30.15 in 7.0 mi NW 8.1 mph - 0.00 in   Light Drizzle
8:53 AM 54.0 °F 52.0 °F 93% 30.15 in 7.0 mi NW 8.1 mph - 0.00 in   Light Drizzle
9:10 AM 55.4 °F 51.8 °F 88% 30.15 in 10.0 mi NW 8.1 mph - 0.00 in   Mostly Cloudy
9:53 AM 57.0 °F 51.1 °F 81% 30.17 in 10.0 mi NNW 8.1 mph - 0.00 in   Mostly Cloudy
10:14 AM 59.0 °F 51.8 °F 77% 30.16 in 10.0 mi North 4.6 mph - N/A   Mostly Cloudy
10:53 AM 61.0 °F 48.9 °F 64% 30.17 in 10.0 mi NW 6.9 mph - N/A   Mostly Cloudy
11:53 AM 63.0 °F 48.0 °F 58% 30.17 in 10.0 mi North 9.2 mph - N/A   Mostly Cloudy
12:53 PM 66.0 °F 46.0 °F 48% 30.14 in 10.0 mi NNE 6.9 mph - N/A   Mostly Cloudy
1:53 PM 66.0 °F 48.0 °F 52% 30.12 in 10.0 mi NNE 8.1 mph - N/A   Mostly Cloudy
2:53 PM 66.9 °F 48.9 °F 52% 30.11 in 10.0 mi Variable 4.6 mph - N/A   Mostly Cloudy
3:53 PM 64.0 °F 48.9 °F 58% 30.13 in 10.0 mi NE 9.2 mph - N/A   Mostly Cloudy
4:53 PM 61.0 °F 48.9 °F 64% 30.13 in 10.0 mi NE 6.9 mph - N/A   Mostly Cloudy
5:53 PM 59.0 °F 50.0 °F 72% 30.15 in 10.0 mi NE 4.6 mph - N/A   Scattered Clouds
6:53 PM 57.9 °F 50.0 °F 75% 30.16 in 10.0 mi North 4.6 mph - N/A   Partly Cloudy
7:53 PM 57.9 °F 50.0 °F 75% 30.18 in 10.0 mi Calm Calm - N/A   Partly Cloudy
8:53 PM 57.9 °F 51.1 °F 78% 30.20 in 10.0 mi Calm Calm - N/A   Mostly Cloudy
9:53 PM 57.9 °F 52.0 °F 81% 30.21 in 10.0 mi Calm Calm - N/A   Mostly Cloudy
10:53 PM 57.0 °F 52.0 °F 83% 30.21 in 10.0 mi Calm Calm - N/A   Mostly Cloudy
11:53 PM 55.9 °F 51.1 °F 84% 30.21 in 10.0 mi Calm Calm - N/A   Mostly Cloudy